QPF
0.01 0.01 0.02 0.02 0.02 0.03 0.03 0.03 0.04 0.04 0.04 0.04 0.05 0.06 0.06 0.06 0.06 0.06 0.05 0.06 0.06 0.07 0.07 0.09 0.09 0.09 0.09 0.09 0.11 0.10 0.10 0.11 0.12 0.12 0.11 0.09 0.07 0.07 0.06 0.06 0.04 0.02 0.02
0.01 0.01 0.01 0.02 0.03 0.04 0.04 0.04 0.03 0.03 0.03 0.04 0.04 0.05 0.05 0.06 0.06 0.05 0.05 0.06 0.07 0.07 0.08 0.10 0.11 0.12 0.11 0.09 0.10 0.09 0.08 0.08 0.09 0.10 0.10 0.08 0.07 0.05 0.04 0.05 0.04 0.03 0.02
0.01 0.01 0.01 0.02 0.02 0.03 0.03 0.03 0.03 0.03 0.03 0.03 0.04 0.04 0.06 0.07 0.06 0.07 0.07 0.08 0.07 0.07 0.08 0.11 0.13 0.13 0.13 0.11 0.09 0.07 0.05 0.06 0.08 0.08 0.08 0.09 0.07 0.04 0.04 0.04 0.04 0.05 0.04
0.01 0.01 0.02 0.01 0.02 0.02 0.02 0.02 0.02 0.02 0.02 0.03 0.04 0.05 0.06 0.06 0.06 0.07 0.09 0.08 0.08 0.07 0.07 0.07 0.08 0.08 0.09 0.10 0.10 0.09 0.09 0.09 0.10 0.10 0.10 0.10 0.07 0.04 0.04 0.04 0.05 0.05 0.05
0.01 0.01 0.01 0.01 0.02 0.02 0.02 0.02 0.02 0.02 0.02 0.03 0.05 0.05 0.07 0.07 0.06 0.07 0.07 0.05 0.05 0.05 0.06 0.06 0.07 0.08 0.07 0.07 0.07 0.08 0.10 0.12 0.10 0.10 0.10 0.08 0.07 0.05 0.04 0.04 0.04 0.06 0.06
0.01 0.01 0.01 0.01 0.02 0.01 0.01 0.02 0.02 0.02 0.03 0.04 0.04 0.04 0.04 0.03 0.03 0.03 0.03 0.04 0.05 0.06 0.06 0.06 0.07 0.07 0.07 0.05 0.04 0.04 0.04 0.05 0.05 0.06 0.06 0.07 0.06 0.06 0.05 0.05 0.05 0.05 0.04
0.01 0.01 0.01 0.02 0.02 0.02 0.01 0.02 0.02 0.02 0.03 0.03 0.03 0.03 0.02 0.03 0.03 0.02 0.02 0.03 0.05 0.06 0.07 0.07 0.05 0.04 0.05 0.04 0.04 0.04 0.04 0.04 0.03 0.04 0.05 0.06 0.07 0.05 0.05 0.04 0.04 0.04 0.04
0.01 0.01 0.01 0.01 0.01 0.01 0.02 0.02 0.02 0.02 0.03 0.03 0.03 0.02 0.02 0.03 0.04 0.03 0.05 0.06 0.07 0.06 0.05 0.04 0.04 0.04 0.04 0.05 0.06 0.05 0.04 0.03 0.03 0.03 0.03 0.04 0.05 0.05 0.04 0.04 0.05 0.06 0.07
0.02 0.03 0.01 0.01 0.01 0.02 0.03 0.03 0.03 0.03 0.03 0.03 0.03 0.03 0.03 0.04 0.04 0.05 0.05 0.05 0.04 0.03 0.03 0.03 0.04 0.05 0.05 0.05 0.06 0.07 0.05 0.04 0.05 0.04 0.03 0.03 0.03 0.03 0.03 0.04 0.05 0.07 0.07
0.01 0.01 0.01 0.01 0.03 0.03 0.04 0.03 0.03 0.04 0.04 0.04 0.04 0.04 0.03 0.03 0.02 0.02 0.01 0.01 0.02 0.02 0.03 0.02 0.03 0.06 0.05 0.05 0.05 0.06 0.06 0.06 0.05 0.04 0.03 0.03 0.02 0.03 0.03 0.04 0.05 0.08 0.09
0.02 0.02 0.01 0.01 0.03 0.04 0.04 0.04 0.04 0.05 0.05 0.03 0.03 0.03 0.04 0.05 0.06 0.04 0.02 0.01 0.02 0.02 0.03 0.02 0.02 0.04 0.04 0.04 0.04 0.05 0.05 0.04 0.03 0.02 0.02 0.02 0.03 0.03 0.02 0.03 0.04 0.06 0.06
0.02 0.02 0.02 0.02 0.02 0.02 0.04 0.05 0.05 0.05 0.04 0.04 0.04 0.03 0.04 0.03 0.04 0.05 0.04 0.02 0.02 0.03 0.03 0.03 0.02 0.03 0.03 0.03 0.02 0.02 0.02 0.03 0.02 0.03 0.03 0.03 0.03 0.02 0.02 0.02 0.03 0.05 0.06
0.02 0.02 0.01 0.01 0.02 0.02 0.03 0.04 0.04 0.05 0.04 0.04 0.04 0.03 0.03 0.03 0.03 0.03 0.04 0.03 0.03 0.03 0.03 0.02 0.02 0.02 0.02 0.02 0.01 0.01 0.01 0.01 0.02 0.04 0.03 0.03 0.02 0.03 0.03 0.03 0.03 0.04 0.05
0.01 0.02 0.02 0.01 0.02 0.02 0.03 0.04 0.05 0.05 0.05 0.04 0.03 0.03 0.04 0.03 0.02 0.02 0.02 0.02 0.02 0.03 0.02 0.02 0.02 0.02 0.02 0.02 0.02 0.02 0.02 0.02 0.03 0.03 0.03 0.04 0.04 0.03 0.03 0.04 0.04 0.04 0.04
0.02 0.02 0.02 0.02 0.02 0.03 0.04 0.04 0.05 0.06 0.07 0.05 0.04 0.04 0.04 0.04 0.04 0.03 0.02 0.01 0.01 0.01 0.01 0.02 0.02 0.02 0.02 0.03 0.03 0.04 0.04 0.04 0.03 0.03 0.03 0.03 0.03 0.03 0.03 0.04 0.04 0.05 0.05
0.02 0.02 0.02 0.02 0.02 0.02 0.02 0.03 0.04 0.04 0.05 0.05 0.05 0.05 0.05 0.05 0.05 0.05 0.04 0.04 0.03 0.03 0.03 0.03 0.04 0.05 0.04 0.03 0.03 0.03 0.04 0.02 0.01 0.02 0.02 0.02 0.02 0.02 0.02 0.02 0.03 0.03 0.04
0.02 0.02 0.02 0.02 0.01 0.01 0.01 0.02 0.02 0.04 0.05 0.05 0.04 0.04 0.04 0.05 0.05 0.04 0.04 0.05 0.05 0.05 0.05 0.05 0.05 0.05 0.05 0.04 0.03 0.02 0.02 0.02 0.02 0.01 0.01 0.01 0.01 0.01 0.01 0.02 0.02 0.04 0.04
0.03 0.02 0.02 0.01 0.02 0.02 0.02 0.02 0.02 0.02 0.02 0.02 0.03 0.02 0.02 0.02 0.02 0.03 0.03 0.03 0.03 0.03 0.03 0.03 0.03 0.04 0.04 0.04 0.03 0.02 0.03 0.04 0.05 0.03 0.02 0.02 0.02 0.02 0.03 0.03 0.03 0.03 0.04
0.05 0.04 0.03 0.02 0.02 0.03 0.03 0.03 0.03 0.03 0.02 0.01 0.01 0.01 0.01 0.01 0.01 0.01 0.01 0.01 0.01 0.01 0.02 0.02 0.03 0.03 0.03 0.03 0.03 0.03 0.03 0.03 0.05 0.05 0.04 0.04 0.03 0.03 0.03 0.03 0.02 0.03 0.03
0.08 0.08 0.06 0.03 0.02 0.02 0.03 0.03 0.03 0.03 0.03 0.03 0.02 0.02 0.02 0.01 0.01 0.01 0.01 0.01 0.01 0.01 0.01 0.01 0.02 0.03 0.03 0.03 0.02 0.03 0.03 0.04 0.05 0.05 0.05 0.05 0.04 0.03 0.03 0.03 0.03 0.04 0.03
0.09 0.10 0.10 0.07 0.03 0.02 0.02 0.02 0.02 0.03 0.03 0.03 0.04 0.04 0.04 0.03 0.03 0.02 0.01 0.01 0.01 0.01 0.01 0.01 0.02 0.02 0.02 0.02 0.02 0.02 0.03 0.03 0.04 0.04 0.05 0.06 0.05 0.05 0.05 0.04 0.03 0.03 0.02
0.08 0.09 0.09 0.07 0.04 0.03 0.02 0.02 0.02 0.02 0.02 0.03 0.03 0.05 0.06 0.04 0.03 0.02 0.02 0.01 0.01 0.01 0.01 0.01 0.01 0.01 0.01 0.02 0.02 0.02 0.03 0.03 0.03 0.03 0.04 0.04 0.04 0.03 0.02 0.02 0.02 0.02 0.02
0.05 0.08 0.07 0.06 0.05 0.04 0.02 0.01 0.01 0.02 0.02 0.02 0.02 0.02 0.03 0.03 0.03 0.02 0.02 0.02 0.02 0.01 0.01 0.01 0.01 0.01 0.01 0.01 0.01 0.02 0.02 0.02 0.02 0.02 0.02 0.02 0.02 0.02 0.02 0.01 0.01 0.01 0.01
0.02 0.04 0.07 0.06 0.05 0.04 0.04 0.03 0.02 0.02 0.02 0.02 0.01 0.01 0.02 0.02 0.02 0.03 0.04 0.04 0.03 0.01 0.01 0.01 0.01 0.01 0.01 0.01 0.01 0.02 0.02 0.02 0.02 0.02 0.02 0.02 0.02 0.02 0.02 0.02 0.02 0.02 0.02
0.02 0.02 0.03 0.04 0.05 0.05 0.04 0.03 0.04 0.03 0.03 0.02 0.02 0.02 0.03 0.03 0.04 0.06 0.07 0.05 0.03 0.01 0.01 0.01 0.01 0.01 0.01 0.01 0.01 0.01 0.02 0.02 0.02 0.02 0.01 0.01 0.01 0.02 0.02 0.02 0.02 0.01 0.02
0.04 0.04 0.02 0.02 0.03 0.04 0.05 0.05 0.04 0.03 0.04 0.04 0.04 0.04 0.03 0.03 0.02 0.02 0.03 0.02 0.02 0.01 0.01 0.01 0.01 0.01 0.01 0.01 0.01 0.01 0.02 0.02 0.02 0.01 0.01 0.01 0.01 0.01 0.01 0.01 0.01 0.01 0.01
MSLP
1017.41 1017.83 1018.29 1018.73 1019.11 1019.38 1019.53 1019.57 1019.54 1019.47 1019.39 1019.35 1019.33 1019.35 1019.37 1019.38 1019.36 1019.30 1019.22 1019.14 1019.09 1019.10 1019.19 1019.36 1019.60 1019.91 1020.24 1020.57 1020.90 1021.20 1021.50 1021.79 1022.12 1022.48 1022.87 1023.30 1023.73 1024.12 1024.45 1024.69 1024.82 1024.86 1024.81
1017.70 1018.11 1018.55 1018.97 1019.33 1019.59 1019.75 1019.80 1019.79 1019.73 1019.67 1019.63 1019.63 1019.65 1019.69 1019.73 1019.75 1019.74 1019.71 1019.66 1019.64 1019.65 1019.71 1019.83 1020.00 1020.21 1020.45 1020.70 1020.95 1021.20 1021.47 1021.75 1022.07 1022.43 1022.83 1023.26 1023.68 1024.08 1024.41 1024.66 1024.82 1024.88 1024.88
1017.94 1018.34 1018.77 1019.17 1019.51 1019.76 1019.92 1019.99 1020.00 1019.98 1019.95 1019.94 1019.96 1020.01 1020.08 1020.15 1020.21 1020.25 1020.26 1020.25 1020.25 1020.26 1020.30 1020.37 1020.48 1020.62 1020.78 1020.96 1021.15 1021.35 1021.57 1021.83 1022.12 1022.46 1022.83 1023.23 1023.62 1023.98 1024.29 1024.52 1024.68 1024.76 1024.80
1018.09 1018.50 1018.90 1019.29 1019.62 1019.88 1020.06 1020.16 1020.21 1020.23 1020.25 1020.29 1020.35 1020.44 1020.54 1020.65 1020.74 1020.81 1020.85 1020.88 1020.89 1020.90 1020.91 1020.95 1021.01 1021.09 1021.19 1021.31 1021.45 1021.60 1021.79 1022.01 1022.27 1022.56 1022.89 1023.22 1023.55 1023.86 1024.11 1024.32 1024.46 1024.56 1024.63
1018.14 1018.56 1018.96 1019.35 1019.69 1019.96 1020.17 1020.32 1020.43 1020.51 1020.58 1020.67 1020.77 1020.90 1021.03 1021.16 1021.28 1021.37 1021.44 1021.48 1021.50 1021.50 1021.51 1021.52 1021.54 1021.58 1021.64 1021.72 1021.81 1021.94 1022.08 1022.26 1022.47 1022.71 1022.97 1023.23 1023.49 1023.73 1023.93 1024.09 1024.23 1024.33 1024.43
1018.11 1018.54 1018.96 1019.35 1019.71 1020.02 1020.27 1020.47 1020.63 1020.78 1020.91 1021.04 1021.19 1021.34 1021.49 1021.64 1021.77 1021.87 1021.94 1021.99 1022.01 1022.01 1022.01 1022.01 1022.01 1022.03 1022.07 1022.12 1022.19 1022.29 1022.41 1022.54 1022.70 1022.88 1023.07 1023.26 1023.44 1023.60 1023.75 1023.88 1024.00 1024.11 1024.24
1018.04 1018.49 1018.92 1019.33 1019.71 1020.05 1020.35 1020.60 1020.83 1021.02 1021.20 1021.37 1021.54 1021.70 1021.86 1022.00 1022.13 1022.23 1022.30 1022.34 1022.37 1022.38 1022.38 1022.38 1022.39 1022.41 1022.44 1022.49 1022.55 1022.63 1022.72 1022.82 1022.93 1023.05 1023.17 1023.28 1023.40 1023.50 1023.60 1023.70 1023.81 1023.93 1024.08
1017.95 1018.42 1018.87 1019.30 1019.71 1020.08 1020.41 1020.70 1020.96 1021.19 1021.39 1021.58 1021.75 1021.91 1022.06 1022.19 1022.31 1022.40 1022.47 1022.52 1022.56 1022.58 1022.61 1022.63 1022.66 1022.70 1022.74 1022.80 1022.86 1022.92 1022.99 1023.07 1023.13 1023.20 1023.26 1023.32 1023.37 1023.43 1023.49 1023.57 1023.67 1023.80 1023.96
1017.87 1018.36 1018.82 1019.27 1019.68 1020.07 1020.42 1020.73 1021.01 1021.25 1021.46 1021.64 1021.81 1021.95 1022.08 1022.19 1022.30 1022.39 1022.46 1022.53 1022.59 1022.65 1022.71 1022.77 1022.83 1022.90 1022.97 1023.04 1023.11 1023.17 1023.22 1023.27 1023.31 1023.33 1023.35 1023.35 1023.37 1023.39 1023.42 1023.49 1023.58 1023.71 1023.88
1017.82 1018.31 1018.78 1019.22 1019.63 1020.02 1020.36 1020.67 1020.95 1021.18 1021.38 1021.55 1021.69 1021.82 1021.93 1022.03 1022.14 1022.23 1022.33 1022.43 1022.52 1022.62 1022.73 1022.83 1022.93 1023.03 1023.13 1023.22 1023.29 1023.35 1023.40 1023.42 1023.43 1023.42 1023.41 1023.39 1023.37 1023.37 1023.39 1023.44 1023.53 1023.66 1023.82
1017.75 1018.24 1018.70 1019.13 1019.53 1019.89 1020.22 1020.51 1020.77 1020.98 1021.16 1021.31 1021.43 1021.55 1021.66 1021.77 1021.89 1022.01 1022.14 1022.28 1022.42 1022.57 1022.72 1022.86 1023.00 1023.12 1023.24 1023.33 1023.41 1023.46 1023.49 1023.50 1023.48 1023.46 1023.42 1023.38 1023.35 1023.34 1023.35 1023.40 1023.49 1023.61 1023.76
1017.64 1018.12 1018.56 1018.97 1019.34 1019.68 1019.98 1020.25 1020.47 1020.66 1020.83 1020.96 1021.09 1021.21 1021.34 1021.47 1021.62 1021.78 1021.95 1022.14 1022.33 1022.52 1022.70 1022.87 1023.03 1023.16 1023.27 1023.36 1023.42 1023.46 1023.47 1023.46 1023.43 1023.40 1023.35 1023.31 1023.28 1023.27 1023.29 1023.34 1023.42 1023.54 1023.68
1017.45 1017.91 1018.32 1018.71 1019.05 1019.36 1019.64 1019.87 1020.08 1020.26 1020.42 1020.56 1020.70 1020.85 1021.01 1021.19 1021.38 1021.59 1021.82 1022.05 1022.27 1022.49 1022.69 1022.86 1023.00 1023.12 1023.21 1023.26 1023.30 1023.31 1023.30 1023.27 1023.24 1023.20 1023.16 1023.13 1023.11 1023.12 1023.15 1023.21 1023.29 1023.40 1023.54
1017.13 1017.58 1017.97 1018.34 1018.66 1018.94 1019.20 1019.42 1019.62 1019.80 1019.97 1020.13 1020.31 1020.50 1020.71 1020.95 1021.20 1021.46 1021.73 1021.99 1022.23 1022.44 1022.63 1022.77 1022.88 1022.95 1022.99 1023.00 1022.99 1022.97 1022.94 1022.90 1022.87 1022.84 1022.82 1022.81 1022.82 1022.85 1022.90 1022.97 1023.07 1023.19 1023.32
1016.70 1017.13 1017.51 1017.86 1018.16 1018.43 1018.68 1018.90 1019.10 1019.29 1019.49 1019.69 1019.92 1020.17 1020.44 1020.73 1021.03 1021.34 1021.63 1021.90 1022.14 1022.33 1022.47 1022.56 1022.60 1022.61 1022.58 1022.54 1022.48 1022.43 1022.38 1022.34 1022.32 1022.31 1022.32 1022.35 1022.39 1022.45 1022.53 1022.63 1022.74 1022.87 1023.00
1016.17 1016.59 1016.96 1017.29 1017.59 1017.85 1018.09 1018.32 1018.53 1018.75 1018.98 1019.23 1019.51 1019.81 1020.14 1020.48 1020.82 1021.15 1021.46 1021.72 1021.92 1022.07 1022.14 1022.17 1022.14 1022.07 1021.97 1021.87 1021.78 1021.70 1021.65 1021.62 1021.62 1021.65 1021.70 1021.76 1021.85 1021.95 1022.06 1022.18 1022.31 1022.45 1022.59
1015.60 1016.00 1016.36 1016.68 1016.97 1017.23 1017.47 1017.70 1017.93 1018.17 1018.43 1018.72 1019.04 1019.39 1019.76 1020.14 1020.50 1020.84 1021.13 1021.37 1021.53 1021.61 1021.63 1021.57 1021.47 1021.34 1021.19 1021.05 1020.94 1020.86 1020.81 1020.81 1020.85 1020.92 1021.02 1021.13 1021.26 1021.39 1021.52 1021.66 1021.80 1021.94 1022.09
1015.04 1015.41 1015.75 1016.06 1016.33 1016.58 1016.81 1017.04 1017.28 1017.54 1017.82 1018.14 1018.49 1018.86 1019.26 1019.65 1020.02 1020.35 1020.62 1020.82 1020.93 1020.96 1020.92 1020.81 1020.65 1020.48 1020.31 1020.15 1020.04 1019.98 1019.97 1020.01 1020.10 1020.22 1020.36 1020.52 1020.67 1020.83 1020.97 1021.11 1021.25 1021.39 1021.52
1014.53 1014.87 1015.18 1015.45 1015.70 1015.92 1016.14 1016.35 1016.59 1016.84 1017.13 1017.46 1017.82 1018.21 1018.60 1018.99 1019.36 1019.67 1019.92 1020.08 1020.16 1020.15 1020.07 1019.93 1019.75 1019.57 1019.40 1019.26 1019.18 1019.16 1019.21 1019.30 1019.44 1019.61 1019.80 1019.98 1020.16 1020.31 1020.46 1020.58 1020.70 1020.81 1020.92
1014.10 1014.39 1014.65 1014.88 1015.08 1015.27 1015.45 1015.64 1015.85 1016.10 1016.37 1016.69 1017.05 1017.43 1017.82 1018.19 1018.54 1018.84 1019.06 1019.21 1019.27 1019.24 1019.15 1019.01 1018.85 1018.69 1018.55 1018.47 1018.44 1018.48 1018.59 1018.74 1018.93 1019.15 1019.36 1019.56 1019.73 1019.87 1019.99 1020.08 1020.15 1020.22 1020.29
1013.75 1013.98 1014.18 1014.35 1014.50 1014.63 1014.77 1014.92 1015.10 1015.31 1015.57 1015.87 1016.20 1016.56 1016.94 1017.30 1017.63 1017.91 1018.13 1018.27 1018.32 1018.31 1018.24 1018.13 1018.01 1017.90 1017.83 1017.81 1017.85 1017.96 1018.13 1018.34 1018.57 1018.81 1019.04 1019.23 1019.39 1019.50 1019.57 1019.61 1019.62 1019.63 1019.64
1013.46 1013.62 1013.75 1013.85 1013.94 1014.02 1014.11 1014.21 1014.35 1014.53 1014.76 1015.03 1015.34 1015.68 1016.04 1016.39 1016.70 1016.98 1017.19 1017.34 1017.41 1017.43 1017.40 1017.34 1017.28 1017.24 1017.24 1017.30 1017.41 1017.58 1017.80 1018.05 1018.31 1018.56 1018.78 1018.96 1019.08 1019.14 1019.16 1019.14 1019.09 1019.04 1018.99
1013.21 1013.29 1013.35 1013.38 1013.41 1013.44 1013.48 1013.55 1013.65 1013.80 1014.00 1014.25 1014.54 1014.86 1015.19 1015.53 1015.83 1016.11 1016.32 1016.49 1016.59 1016.64 1016.66 1016.66 1016.67 1016.70 1016.77 1016.89 1017.06 1017.28 1017.53 1017.81 1018.07 1018.32 1018.52 1018.66 1018.74 1018.76 1018.72 1018.64 1018.54 1018.42 1018.32
1012.97 1012.98 1012.97 1012.95 1012.93 1012.92 1012.92 1012.96 1013.04 1013.17 1013.35 1013.58 1013.85 1014.15 1014.47 1014.78 1015.08 1015.35 1015.57 1015.74 1015.87 1015.96 1016.02 1016.07 1016.14 1016.22 1016.34 1016.51 1016.72 1016.97 1017.24 1017.52 1017.78 1018.00 1018.18 1018.28 1018.32 1018.30 1018.21 1018.09 1017.94 1017.79 1017.65
1012.72 1012.68 1012.63 1012.57 1012.52 1012.48 1012.47 1012.49 1012.56 1012.67 1012.84 1013.05 1013.31 1013.59 1013.88 1014.18 1014.46 1014.71 1014.93 1015.11 1015.25 1015.36 1015.45 1015.54 1015.64 1015.76 1015.91 1016.11 1016.34 1016.60 1016.87 1017.13 1017.37 1017.57 1017.71 1017.79 1017.79 1017.74 1017.62 1017.47 1017.30 1017.13 1016.98
1012.48 1012.41 1012.33 1012.25 1012.18 1012.14 1012.12 1012.15 1012.21 1012.33 1012.48 1012.69 1012.92 1013.18 1013.45 1013.71 1013.97 1014.19 1014.39 1014.56 1014.70 1014.81 1014.91 1015.02 1015.14 1015.28 1015.45 1015.65 1015.88 1016.13 1016.39 1016.63 1016.85 1017.02 1017.13 1017.18 1017.17 1017.09 1016.97 1016.82 1016.64 1016.47 1016.33
Thickness
5800 5796 5793 5790 5787 5783 5779 5777 5774 5771 5768 5764 5761 5758 5755 5752 5750 5747 5744 5742 5739 5737 5736 5734 5732 5732 5731 5730 5730 5727 5724 5719 5711 5708 5708 5707 5706 5704 5701 5699 5696 5693 5690
5799 5796 5792 5788 5785 5781 5777 5775 5772 5769 5766 5762 5759 5755 5752 5749 5746 5743 5741 5738 5735 5732 5730 5729 5728 5727 5726 5724 5723 5721 5719 5716 5710 5704 5702 5701 5699 5698 5696 5694 5692 5689 5685
5798 5793 5789 5785 5781 5777 5775 5772 5770 5766 5763 5759 5756 5752 5748 5746 5743 5740 5738 5735 5732 5729 5727 5724 5723 5721 5719 5718 5716 5715 5713 5712 5708 5702 5698 5696 5693 5692 5690 5689 5687 5683 5681
5795 5790 5785 5781 5778 5775 5772 5769 5766 5763 5759 5755 5752 5748 5745 5742 5740 5737 5734 5730 5728 5725 5723 5720 5718 5715 5713 5712 5711 5708 5706 5703 5701 5697 5692 5689 5686 5685 5683 5680 5677 5676 5674
5790 5784 5781 5778 5774 5771 5768 5765 5762 5759 5755 5751 5747 5744 5741 5738 5734 5731 5729 5726 5723 5720 5717 5715 5712 5710 5708 5706 5705 5701 5699 5696 5693 5690 5686 5682 5679 5676 5674 5674 5670 5668 5666
5784 5779 5777 5773 5769 5766 5763 5760 5756 5753 5750 5746 5742 5738 5735 5732 5728 5726 5724 5722 5718 5714 5711 5709 5707 5704 5702 5699 5697 5696 5694 5690 5687 5683 5680 5675 5671 5670 5668 5667 5663 5660 5657
5779 5775 5771 5768 5764 5761 5759 5755 5751 5747 5744 5740 5737 5732 5728 5724 5722 5720 5718 5716 5713 5709 5706 5703 5702 5699 5696 5694 5691 5688 5686 5684 5682 5678 5674 5670 5667 5666 5663 5660 5658 5656 5652
5772 5769 5766 5763 5759 5755 5752 5748 5745 5742 5738 5734 5731 5727 5723 5718 5715 5713 5711 5710 5707 5704 5701 5698 5694 5692 5690 5687 5685 5681 5678 5675 5674 5672 5670 5667 5664 5661 5659 5656 5653 5651 5648
5765 5761 5758 5757 5753 5749 5745 5742 5739 5736 5732 5729 5725 5721 5717 5712 5708 5707 5704 5704 5701 5698 5695 5692 5689 5685 5682 5680 5677 5674 5670 5668 5666 5664 5662 5660 5658 5655 5653 5650 5647 5643 5639
5760 5756 5754 5751 5747 5742 5739 5736 5734 5730 5726 5723 5719 5716 5712 5707 5703 5701 5699 5698 5695 5692 5688 5685 5682 5679 5675 5673 5670 5667 5663 5661 5660 5658 5655 5653 5651 5649 5646 5643 5641 5637 5634
5755 5751 5747 5744 5740 5737 5733 5730 5727 5724 5720 5717 5713 5710 5706 5702 5698 5695 5692 5691 5688 5685 5681 5678 5674 5671 5668 5665 5663 5660 5657 5655 5654 5651 5649 5647 5644 5642 5640 5637 5635 5631 5627
5747 5743 5740 5737 5734 5731 5726 5722 5719 5716 5712 5709 5706 5703 5700 5696 5692 5688 5686 5683 5681 5678 5674 5671 5667 5663 5660 5658 5655 5653 5651 5649 5647 5644 5642 5639 5636 5634 5633 5631 5628 5626 5623
5738 5735 5732 5729 5726 5724 5719 5715 5711 5709 5706 5703 5700 5697 5694 5690 5685 5681 5678 5676 5673 5670 5667 5663 5659 5656 5653 5651 5648 5646 5643 5641 5639 5636 5634 5631 5630 5628 5626 5624 5621 5619 5616
5730 5727 5724 5721 5718 5715 5711 5709 5705 5702 5699 5696 5694 5691 5688 5683 5678 5674 5671 5668 5665 5663 5659 5655 5651 5648 5645 5642 5640 5638 5636 5634 5632 5629 5627 5625 5623 5621 5618 5616 5613 5610 5607
5722 5720 5717 5714 5711 5706 5702 5698 5696 5692 5690 5687 5686 5683 5680 5674 5669 5665 5663 5661 5658 5655 5651 5649 5645 5641 5638 5636 5633 5631 5629 5627 5624 5622 5619 5616 5614 5612 5610 5609 5606 5603 5599
5714 5712 5710 5708 5704 5700 5696 5690 5685 5684 5680 5678 5676 5674 5670 5666 5661 5658 5655 5652 5649 5647 5644 5642 5639 5635 5633 5630 5627 5624 5622 5619 5616 5614 5611 5608 5606 5604 5602 5600 5598 5595 5591
5707 5705 5704 5701 5698 5695 5692 5687 5680 5674 5670 5668 5667 5665 5661 5658 5654 5650 5647 5644 5642 5639 5637 5635 5632 5629 5626 5624 5620 5617 5614 5611 5608 5606 5604 5601 5599 5596 5594 5591 5588 5586 5583
5701 5698 5697 5694 5692 5690 5687 5683 5679 5674 5668 5664 5659 5656 5653 5650 5647 5644 5640 5638 5636 5633 5631 5628 5626 5623 5620 5617 5613 5611 5608 5605 5601 5598 5596 5594 5592 5589 5586 5584 5581 5578 5575
5694 5692 5690 5688 5686 5683 5681 5678 5674 5671 5666 5661 5655 5649 5645 5642 5639 5636 5633 5632 5632 5629 5626 5622 5619 5616 5613 5610 5607 5604 5601 5598 5594 5592 5589 5587 5584 5582 5579 5577 5574 5571 5567
5685 5684 5681 5679 5678 5676 5674 5671 5668 5664 5661 5656 5652 5647 5642 5638 5636 5632 5629 5628 5626 5623 5621 5618 5614 5610 5607 5603 5600 5597 5595 5591 5588 5585 5582 5578 5576 5574 5572 5569 5566 5563 5560
5678 5676 5672 5670 5669 5668 5665 5663 5661 5657 5654 5651 5647 5643 5637 5636 5634 5630 5627 5624 5621 5618 5615 5612 5608 5604 5601 5597 5594 5590 5587 5584 5580 5576 5574 5571 5568 5566 5564 5562 5559 5556 5553
5669 5667 5665 5664 5662 5659 5657 5655 5653 5650 5648 5645 5641 5638 5632 5630 5629 5626 5622 5619 5616 5612 5609 5605 5602 5598 5594 5590 5587 5583 5580 5576 5573 5569 5566 5564 5561 5559 5557 5555 5552 5549 5546
5660 5658 5657 5655 5654 5650 5648 5647 5645 5642 5640 5637 5634 5631 5627 5624 5622 5619 5615 5612 5609 5605 5602 5599 5595 5591 5586 5583 5580 5576 5572 5568 5565 5561 5558 5556 5554 5552 5550 5548 5545 5542 5539
5652 5650 5648 5646 5644 5643 5641 5638 5635 5634 5632 5630 5626 5624 5621 5618 5615 5612 5609 5605 5601 5598 5595 5592 5588 5584 5580 5576 5572 5568 5564 5561 5558 5554 5551 5548 5547 5545 5542 5540 5538 5535 5532
5643 5641 5639 5637 5636 5634 5632 5629 5627 5626 5624 5622 5619 5616 5614 5611 5608 5605 5602 5598 5595 5592 5589 5586 5582 5578 5574 5569 5565 5561 5557 5554 5551 5547 5545 5543 5540 5538 5535 5533 5531 5528 5526
5634 5632 5631 5630 5629 5627 5625 5622 5619 5618 5617 5615 5613 5610 5607 5605 5601 5598 5595 5591 5588 5586 5582 5579 5576 5571 5567 5562 5558 5554 5550 5548 5545 5542 5538 5536 5534 5531 5528 5526 5524 5521 5519